When you browse on this site, cookies collect data to enhance your experience and personalize the content and advertising you see.
Visit our Privacy Policy to learn more. By continuing to use the site, you agree to this use of cookies and data.
  • In Italy
  • List of Countries
  • For 7 days
  • Water Temperature
  • Satellite Maps
  • Weather Map
  • Weather Widgets
  • user-avatar
    Login

    Hourly Weather Wiktoria

    Today, 10 December, Monday

    Time Temperature Precipitation Wind Pressure Humidity
    00:00 +19°C° 0.2 mm 2 mps 750 mmHg 85%
    01:00 +20°C° 0.2 mm 1 mps 750 mmHg 87%
    02:00 +19°C° 0 mm 1 mps 750 mmHg 88%
    03:00 +19°C° 0 mm 1 mps 750 mmHg 88%
    04:00 +19°C° 0 mm 1 mps 749 mmHg 89%
    05:00 +18°C° 0 mm 2 mps 750 mmHg 85%
    06:00 +19°C° 0 mm 2 mps 750 mmHg 80%
    07:00 +20°C° 0 mm 3 mps 750 mmHg 76%
    08:00 +22°C° 0 mm 3 mps 750 mmHg 66%
    09:00 +25°C° 0 mm 4 mps 750 mmHg 56%
    10:00 +27°C° 0 mm 4 mps 750 mmHg 43%
    11:00 +28°C° 0 mm 4 mps 750 mmHg 38%
    12:00 +29°C° 0 mm 5 mps 750 mmHg 33%
    13:00 +30°C° 0 mm 5 mps 749 mmHg 27%
    14:00 +30°C° 0 mm 5 mps 749 mmHg 27%
    15:00 +30°C° 0 mm 6 mps 749 mmHg 28%
    16:00 +30°C° 0 mm 6 mps 749 mmHg 28%
    17:00 +28°C° 0 mm 6 mps 749 mmHg 32%
    18:00 +26°C° 0 mm 6 mps 749 mmHg 35%
    19:00 +23°C° 0 mm 6 mps 749 mmHg 39%
    20:00 +21°C° 0 mm 5 mps 750 mmHg 42%
    21:00 +20°C° 0 mm 5 mps 750 mmHg 46%
    22:00 +17°C° 0 mm 5 mps 751 mmHg 49%
    23:00 +16°C° 0 mm 5 mps 751 mmHg 53%

    Tomorrow, 11 December, Tuesday

    Time Temperature Precipitation Wind Pressure Humidity
    00:00 +15°C° 0 mm 5 mps 751 mmHg 58%
    01:00 +14°C° 0 mm 4 mps 751 mmHg 62%
    02:00 +14°C° 0 mm 4 mps 751 mmHg 66%
    03:00 +13°C° 0 mm 3 mps 750 mmHg 69%
    04:00 +13°C° 0 mm 3 mps 750 mmHg 73%
    05:00 +14°C° 0 mm 3 mps 750 mmHg 69%
    06:00 +17°C° 0 mm 3 mps 750 mmHg 66%
    07:00 +18°C° 0 mm 3 mps 750 mmHg 62%
    08:00 +21°C° 0 mm 3 mps 750 mmHg 56%
    09:00 +25°C° 0 mm 2 mps 750 mmHg 51%
    10:00 +28°C° 0 mm 2 mps 749 mmHg 45%
    11:00 +30°C° 0 mm 2 mps 749 mmHg 39%
    12:00 +31°C° 0 mm 1 mps 749 mmHg 32%
    13:00 +33°C° 0 mm 1 mps 748 mmHg 26%
    14:00 +33°C° 0 mm 1 mps 748 mmHg 24%
    15:00 +34°C° 0 mm 1 mps 747 mmHg 22%
    16:00 +35°C° 0 mm 2 mps 746 mmHg 20%
    17:00 +32°C° 0 mm 2 mps 746 mmHg 25%
    18:00 +30°C° 0 mm 3 mps 746 mmHg 29%
    19:00 +29°C° 0 mm 3 mps 746 mmHg 33%
    20:00 +26°C° 0 mm 3 mps 746 mmHg 40%
    21:00 +24°C° 0 mm 3 mps 747 mmHg 46%
    22:00 +21°C° 0 mm 3 mps 747 mmHg 53%
    23:00 +21°C° 0 mm 3 mps 747 mmHg 56%

    Day after tomorrow, 12 December, Wednesday

    Time Temperature Precipitation Wind Pressure Humidity
    00:00 +21°C° 0 mm 3 mps 747 mmHg 59%
    01:00 +20°C° 0 mm 3 mps 746 mmHg 62%
    02:00 +20°C° 0 mm 3 mps 746 mmHg 65%
    03:00 +20°C° 0 mm 4 mps 746 mmHg 68%
    04:00 +21°C° 0 mm 4 mps 745 mmHg 71%
    05:00 +21°C° 0 mm 4 mps 745 mmHg 69%
    06:00 +22°C° 0 mm 5 mps 745 mmHg 67%
    07:00 +23°C° 0 mm 5 mps 746 mmHg 65%
    08:00 +26°C° 0 mm 5 mps 745 mmHg 61%
    09:00 +27°C° 0 mm 5 mps 745 mmHg 56%
    10:00 +29°C° 0 mm 5 mps 745 mmHg 52%
    11:00 +30°C° 0 mm 5 mps 744 mmHg 50%
    12:00 +32°C° 0 mm 5 mps 743 mmHg 47%
    13:00 +33°C° 0 mm 4 mps 743 mmHg 44%
    14:00 +32°C° 2.3 mm 4 mps 742 mmHg 46%
    15:00 +30°C° 2.3 mm 4 mps 741 mmHg 48%
    16:00 +30°C° 2.3 mm 4 mps 740 mmHg 50%
    17:00 +27°C° 4.8 mm 4 mps 740 mmHg 60%
    18:00 +25°C° 4.8 mm 3 mps 740 mmHg 70%
    19:00 +21°C° 4.8 mm 2 mps 740 mmHg 80%
    20:00 +21°C° 1.2 mm 2 mps 741 mmHg 83%
    21:00 +21°C° 1.2 mm 2 mps 741 mmHg 86%
    22:00 +21°C° 1.2 mm 2 mps 741 mmHg 89%
    23:00 +21°C° 0.3 mm 2 mps 741 mmHg 89%

    13 December, Thursday

    Time Temperature Precipitation Wind Pressure Humidity
    00:00 +21°C° 0.3 mm 3 mps 740 mmHg 89%
    01:00 +21°C° 0.3 mm 3 mps 740 mmHg 90%
    02:00 +21°C° 0.3 mm 3 mps 739 mmHg 90%
    03:00 +21°C° 0.3 mm 3 mps 739 mmHg 91%
    04:00 +20°C° 0.3 mm 2 mps 738 mmHg 91%
    05:00 +21°C° 1.6 mm 3 mps 738 mmHg 90%
    06:00 +22°C° 1.6 mm 4 mps 738 mmHg 88%
    07:00 +22°C° 1.6 mm 4 mps 738 mmHg 86%
    08:00 +23°C° 2.6 mm 4 mps 738 mmHg 81%
    09:00 +25°C° 2.6 mm 4 mps 738 mmHg 76%
    10:00 +27°C° 2.6 mm 5 mps 737 mmHg 71%
    11:00 +26°C° 4.9 mm 4 mps 737 mmHg 72%
    12:00 +26°C° 4.9 mm 4 mps 737 mmHg 72%
    13:00 +26°C° 4.9 mm 3 mps 736 mmHg 73%
    14:00 +25°C° 4.2 mm 3 mps 736 mmHg 74%
    15:00 +25°C° 4.2 mm 3 mps 735 mmHg 76%
    16:00 +24°C° 4.2 mm 3 mps 735 mmHg 78%
    17:00 +24°C° 0.1 mm 3 mps 735 mmHg 78%
    18:00 +24°C° 0.1 mm 2 mps 735 mmHg 79%
    19:00 +23°C° 0.1 mm 2 mps 735 mmHg 80%
    20:00 +21°C° 0.9 mm 2 mps 735 mmHg 83%
    21:00 +21°C° 0.9 mm 1 mps 735 mmHg 85%
    22:00 +20°C° 0.9 mm 1 mps 736 mmHg 88%
    23:00 +20°C° 0.2 mm 1 mps 735 mmHg 89%

    14 December, Friday

    Time Temperature Precipitation Wind Pressure Humidity
    00:00 +20°C° 0.2 mm 1 mps 735 mmHg 89%
    01:00 +20°C° 0.2 mm 1 mps 735 mmHg 90%
    02:00 +19°C° 0 mm 1 mps 735 mmHg 91%
    03:00 +19°C° 0 mm 1 mps 735 mmHg 92%
    04:00 +18°C° 0 mm 1 mps 735 mmHg 93%
    05:00 +19°C° 0.5 mm 1 mps 736 mmHg 92%
    06:00 +19°C° 0.5 mm 1 mps 737 mmHg 91%
    07:00 +19°C° 0.5 mm 1 mps 737 mmHg 90%
    08:00 +19°C° 0.7 mm 2 mps 738 mmHg 88%
    09:00 +19°C° 0.7 mm 2 mps 738 mmHg 87%
    10:00 +20°C° 0.7 mm 3 mps 738 mmHg 85%
    11:00 +20°C° 0.5 mm 3 mps 738 mmHg 79%
    12:00 +21°C° 0.5 mm 3 mps 738 mmHg 73%
    13:00 +22°C° 0.5 mm 4 mps 738 mmHg 67%
    14:00 +24°C° 0.1 mm 3 mps 738 mmHg 63%
    15:00 +24°C° 0.1 mm 3 mps 738 mmHg 58%
    16:00 +25°C° 0.1 mm 3 mps 738 mmHg 54%
    17:00 +24°C° 0 mm 2 mps 738 mmHg 57%
    18:00 +23°C° 0 mm 2 mps 739 mmHg 60%
    19:00 +21°C° 0 mm 2 mps 739 mmHg 63%
    20:00 +20°C° 0 mm 2 mps 740 mmHg 65%
    21:00 +19°C° 0 mm 2 mps 740 mmHg 68%
    22:00 +18°C° 0 mm 2 mps 740 mmHg 70%
    23:00 +18°C° 0 mm 3 mps 740 mmHg 72%

    15 December, Saturday

    Time Temperature Precipitation Wind Pressure Humidity
    00:00 +17°C° 0 mm 3 mps 740 mmHg 74%
    01:00 +17°C° 0 mm 3 mps 739 mmHg 75%
    02:00 +17°C° 0 mm 3 mps 739 mmHg 76%
    03:00 +16°C° 0 mm 3 mps 739 mmHg 77%
    04:00 +16°C° 0 mm 3 mps 739 mmHg 78%
    05:00 +17°C° 0 mm 2 mps 739 mmHg 76%
    06:00 +18°C° 0 mm 2 mps 740 mmHg 73%
    07:00 +19°C° 0 mm 2 mps 740 mmHg 71%
    08:00 +21°C° 0.1 mm 3 mps 740 mmHg 66%
    09:00 +22°C° 0.1 mm 3 mps 740 mmHg 61%
    10:00 +25°C° 0.1 mm 3 mps 740 mmHg 56%
    11:00 +25°C° 0.3 mm 4 mps 739 mmHg 54%
    12:00 +25°C° 0.3 mm 4 mps 739 mmHg 51%
    13:00 +25°C° 0.3 mm 5 mps 739 mmHg 49%
    14:00 +26°C° 0.2 mm 4 mps 739 mmHg 48%
    15:00 +26°C° 0.2 mm 4 mps 738 mmHg 46%
    16:00 +26°C° 0.2 mm 4 mps 738 mmHg 45%
    17:00 +25°C° 0.1 mm 3 mps 738 mmHg 51%
    18:00 +22°C° 0.1 mm 3 mps 739 mmHg 57%
    19:00 +21°C° 0.1 mm 2 mps 739 mmHg 64%
    20:00 +20°C° 0.1 mm 2 mps 739 mmHg 67%
    21:00 +19°C° 0.1 mm 2 mps 739 mmHg 71%
    22:00 +18°C° 0.1 mm 2 mps 739 mmHg 74%
    23:00 +18°C° 0.6 mm 2 mps 739 mmHg 78%
    Show more